Date String (YYYY-MM-DD hh:mm:ss) UTC,Instrument flags,absolute air pressure of the measurement (hPa),sample flow rate (lpm),inlet stack bypass flow (lpm),air temperature of the measurement (°C),ambient temperature measured by the external sensor (°C),aerosol sample conditioner tube jacket temperature (°C),OPC LED temperature (°C),internal box temperature (°C),relative humidity of the measurement (%),span deviation,mass concentration of particles derived from Lorenz-Mie calculation of OPC scattering (μg/m³),mass concentration of particles derived from Lorenz-Mie calculation of OPC scattering (μg/m³),mass concentration of particles derived from Lorenz-Mie calculation of OPC scattering (μg/m³)
DateTimeUTC,F1_M11,P_M11,Q1_M11,Q2_M11,T1_M11,T2_M11,T3_M11,T4_M11,T5_M11,U1_M11,ZSPAN_M11,X0_M11,X2_M11,X1_M11
2024-03-25 00:00:00,SystemResetWarning,0809.7,5.01,000.00,022.3,021.0,000.0,031.1,024.1,20.9,0000.0,0007.45,0004.99,0004.83
2024-03-25 00:01:00,SystemResetWarning,0809.7,5.00,000.00,022.2,021.0,000.0,031.1,024.1,20.9,0000.0,0007.41,0004.95,0004.80
2024-03-25 00:02:00,SystemResetWarning,0809.7,5.00,000.00,022.2,021.0,000.0,031.1,024.1,20.9,0000.0,0007.33,0004.90,0004.77
2024-03-25 00:03:00,SystemResetWarning,0809.8,5.00,000.00,022.2,021.0,000.0,031.1,024.1,20.9,0000.0,0007.25,0004.84,0004.72
2024-03-25 00:04:00,SystemResetWarning,0809.8,4.99,000.00,022.2,020.9,000.0,031.1,024.0,20.9,0000.0,0007.18,0004.80,0004.67
2024-03-25 00:05:00,SystemResetWarning,0809.8,4.99,000.00,022.2,020.9,000.0,031.0,024.0,20.9,0000.0,0007.13,0004.75,0004.62
2024-03-25 00:06:00,SystemResetWarning,0809.8,4.99,000.00,022.1,020.9,000.0,031.0,024.0,20.9,0000.0,0006.98,0004.71,0004.57
2024-03-25 00:07:00,SystemResetWarning,0809.8,5.02,000.00,022.1,020.9,000.0,031.0,024.0,20.9,0000.0,0006.71,0004.63,0004.51
2024-03-25 00:08:00,SystemResetWarning,0809.8,5.00,000.00,022.1,020.8,000.0,031.0,023.9,20.9,0000.0,0007.38,0004.60,0004.46
2024-03-25 00:09:00,SystemResetWarning,0809.9,4.99,000.00,022.1,020.8,000.0,031.0,023.9,20.9,0000.0,0007.45,0004.55,0004.40
2024-03-25 00:10:00,SystemResetWarning,0809.9,4.99,000.00,022.1,020.8,000.0,030.9,023.9,20.9,0000.0,0007.29,0004.51,0004.37
2024-03-25 00:11:00,SystemResetWarning,0809.9,5.01,000.00,022.0,020.8,000.0,030.9,023.9,20.9,0000.0,0007.06,0004.45,0004.33
2024-03-25 00:12:00,SystemResetWarning,0809.9,5.01,000.00,022.0,020.8,000.0,030.9,023.9,20.9,0000.0,0006.86,0004.38,0004.27
2024-03-25 00:13:00,SystemResetWarning,0809.9,5.01,000.00,022.0,020.7,000.0,030.9,023.8,20.8,0000.0,0007.62,0004.32,0004.22
2024-03-25 00:14:00,SystemResetWarning,0810.0,5.00,000.00,021.9,020.6,000.0,030.9,023.8,20.8,0000.0,0007.62,0004.26,0004.16
2024-03-25 00:15:00,SystemResetWarning,0810.0,4.99,000.00,021.9,020.6,000.0,030.8,023.7,20.8,0000.0,0007.56,0004.22,0004.12
2024-03-25 00:16:00,SystemResetWarning,0810.0,4.99,000.00,021.9,020.6,000.0,030.8,023.7,20.9,0000.0,0007.54,0004.20,0004.10
2024-03-25 00:17:00,SystemResetWarning,0810.0,5.00,000.00,021.9,020.6,000.0,030.8,023.7,20.9,0000.0,0007.52,0004.17,0004.07
2024-03-25 00:18:00,SystemResetWarning,0810.1,5.00,000.00,021.8,020.6,000.0,030.8,023.7,20.8,0000.0,0007.52,0004.15,0004.05
2024-03-25 00:19:00,SystemResetWarning,0810.1,5.00,000.00,021.8,020.6,000.0,030.8,023.7,20.8,0000.0,0006.81,0004.09,0004.00
2024-03-25 00:20:00,SystemResetWarning,0810.1,5.00,000.00,021.8,020.6,000.0,030.7,023.7,20.8,0000.0,0006.56,0004.04,0003.95
2024-03-25 00:21:00,SystemResetWarning,0810.1,5.00,000.00,021.8,020.6,000.0,030.7,023.7,20.8,0000.0,0006.47,0004.01,0003.92
2024-03-25 00:22:00,SystemResetWarning,0810.1,5.00,000.00,021.8,020.5,000.0,030.7,023.6,20.8,0000.0,0006.47,0003.98,0003.88
2024-03-25 00:23:00,SystemResetWarning,0810.1,5.00,000.00,021.8,020.5,000.0,030.7,023.6,20.8,0000.0,0006.54,0003.95,0003.85
2024-03-25 00:24:00,SystemResetWarning,0810.3,5.00,000.00,021.7,020.5,000.0,030.7,023.6,20.8,0000.0,0005.40,0003.96,0003.83
2024-03-25 00:25:00,SystemResetWarning,0810.3,5.00,000.00,021.7,020.5,000.0,030.6,023.6,20.9,0000.0,0005.43,0003.95,0003.81
2024-03-25 00:26:00,SystemResetWarning,0810.3,5.00,000.00,021.7,020.5,000.0,030.6,023.6,20.9,0000.0,0005.48,0003.95,0003.80
2024-03-25 00:27:00,SystemResetWarning,0810.3,5.00,000.00,021.7,020.4,000.0,030.6,023.5,20.8,0000.0,0005.48,0003.92,0003.78
2024-03-25 00:28:00,SystemResetWarning,0810.4,5.00,000.00,021.7,020.4,000.0,030.6,023.5,20.8,0000.0,0005.52,0003.90,0003.75
2024-03-25 00:29:00,SystemResetWarning,0810.4,5.00,000.00,021.6,020.4,000.0,030.5,023.5,20.8,0000.0,0005.50,0003.89,0003.74
2024-03-25 00:30:00,SystemResetWarning,0810.4,5.00,000.00,021.6,020.4,000.0,030.5,023.4,20.7,0000.0,0005.65,0003.89,0003.75
2024-03-25 00:31:00,SystemResetWarning,0810.4,5.00,000.00,021.6,020.3,000.0,030.5,023.4,20.7,0000.0,0005.81,0003.88,0003.74
2024-03-25 00:32:00,SystemResetWarning,0810.5,5.00,000.00,021.6,020.3,000.0,030.5,023.4,20.6,0000.0,0005.88,0003.89,0003.75
2024-03-25 00:33:00,SystemResetWarning,0810.5,5.00,000.00,021.5,020.3,000.0,030.5,023.4,20.6,0000.0,0005.88,0003.90,0003.74
2024-03-25 00:34:00,SystemResetWarning,0810.5,5.00,000.00,021.5,020.3,000.0,030.4,023.3,20.6,0000.0,0005.74,0003.87,0003.71
2024-03-25 00:35:00,SystemResetWarning,0810.6,5.00,000.00,021.5,020.2,000.0,030.4,023.3,20.5,0000.0,0005.69,0003.85,0003.70
2024-03-25 00:36:00,SystemResetWarning,0810.6,5.00,000.00,021.5,020.2,000.0,030.4,023.3,20.5,0000.0,0005.57,0003.83,0003.69
2024-03-25 00:37:00,SystemResetWarning,0810.6,5.00,000.00,021.5,020.2,000.0,030.4,023.3,20.5,0000.0,0005.47,0003.80,0003.67
2024-03-25 00:38:00,SystemResetWarning,0810.7,5.00,000.00,021.4,020.2,000.0,030.4,023.3,20.5,0000.0,0005.37,0003.78,0003.65
2024-03-25 00:39:00,SystemResetWarning,0810.7,5.01,000.00,021.4,020.2,000.0,030.3,023.3,20.5,0000.0,0005.26,0003.76,0003.63
2024-03-25 00:40:00,SystemResetWarning,0810.7,5.00,000.00,021.4,020.1,000.0,030.3,023.2,20.5,0000.0,0005.27,0003.76,0003.62
2024-03-25 00:41:00,SystemResetWarning,0810.8,4.99,000.00,021.4,020.1,000.0,030.3,023.2,20.5,0000.0,0005.20,0003.76,0003.62
2024-03-25 00:42:00,SystemResetWarning,0810.8,4.99,000.00,021.4,020.1,000.0,030.3,023.2,20.5,0000.0,0004.98,0003.77,0003.64
2024-03-25 00:43:00,SystemResetWarning,0810.8,5.00,000.00,021.3,020.1,000.0,030.2,023.2,20.4,0000.0,0004.94,0003.77,0003.64
2024-03-25 00:44:00,SystemResetWarning,0810.9,5.01,000.00,021.3,020.0,000.0,030.2,023.1,20.4,0000.0,0004.88,0003.76,0003.65
2024-03-25 00:45:00,SystemResetWarning,0810.9,5.00,000.00,021.3,020.0,000.0,030.2,023.1,20.4,0000.0,0004.90,0003.78,0003.67
2024-03-25 00:46:00,SystemResetWarning,0810.9,5.01,000.00,021.3,020.0,000.0,030.2,023.1,20.3,0000.0,0004.99,0003.79,0003.69
2024-03-25 00:47:00,SystemResetWarning,0811.0,5.01,000.00,021.3,020.0,000.0,030.2,023.1,20.3,0000.0,0004.95,0003.79,0003.69
2024-03-25 00:48:00,SystemResetWarning,0811.0,5.00,000.00,021.2,020.0,000.0,030.1,023.1,20.3,0000.0,0005.21,0003.82,0003.70
2024-03-25 00:49:00,SystemResetWarning,0811.1,4.99,000.00,021.2,020.0,000.0,030.1,023.1,20.3,0000.0,0005.30,0003.84,0003.72
2024-03-25 00:50:00,SystemResetWarning,0811.1,4.99,000.00,021.2,020.0,000.0,030.1,023.1,20.3,0000.0,0005.31,0003.85,0003.74
2024-03-25 00:51:00,SystemResetWarning,0811.1,5.00,000.00,021.2,020.0,000.0,030.1,023.1,20.3,0000.0,0005.27,0003.85,0003.75
2024-03-25 00:52:00,SystemResetWarning,0811.1,5.01,000.00,021.2,019.9,000.0,030.1,023.0,20.3,0000.0,0005.25,0003.86,0003.76
2024-03-25 00:53:00,SystemResetWarning,0811.1,5.01,000.00,021.2,019.9,000.0,030.1,023.0,20.3,0000.0,0005.31,0003.88,0003.77
2024-03-25 00:54:00,SystemResetWarning,0811.1,5.00,000.00,021.1,019.9,000.0,030.0,023.0,20.2,0000.0,0005.40,0003.90,0003.80
2024-03-25 00:55:00,SystemResetWarning,0811.2,5.00,000.00,021.1,019.9,000.0,030.0,022.9,20.2,0000.0,0005.46,0003.93,0003.82
2024-03-25 00:56:00,SystemResetWarning,0811.3,5.00,000.00,021.1,019.9,000.0,030.0,022.9,20.2,0000.0,0005.57,0003.97,0003.85
2024-03-25 00:57:00,SystemResetWarning,0811.3,5.00,000.00,021.1,019.9,000.0,030.0,022.9,20.2,0000.0,0005.64,0004.01,0003.87
2024-03-25 00:58:00,SystemResetWarning,0811.3,4.99,000.00,021.1,019.9,000.0,030.0,022.9,20.2,0000.0,0005.78,0004.05,0003.91
2024-03-25 00:59:00,SystemResetWarning,0811.3,5.00,000.00,021.1,019.9,000.0,029.9,022.9,20.2,0000.0,0005.64,0004.06,0003.94
